Orbital Elements at Epoch 2459200.5 (2020-Dec-17.0) TDB
Reference: JPL 15 (heliocentric ecliptic J2000)
Element | Value | Uncertainty (1-sigma) | Units |
e | .1339551714069452 | 3.9931e-08 | |
a | 2.273709528917848 | 9.7705e-09 | au |
q | 1.969134379242053 | 9.0335e-08 | au |
i | 3.071333075033143 | 5.6463e-06 | deg |
node | 21.03215070806539 | 8.4076e-05 | deg |
peri | 70.82653282203492 | 8.8217e-05 | deg |
M | 347.4399111528089 | 2.3039e-05 | deg |
tp | 2459244.190912020840 (2021-Jan-29.69091202) | 8.0109e-05 | TDB |
period | 1252.278428828141 3.43 | 8.0719e-06 2.21e-08 | d yr |
n | .287476005106054 | 1.853e-09 | deg/d |
Q | 2.578284678593643 | 1.1079e-08 | au |
|
| | Orbit Determination Parameters
Additional Information
|